Home > Weather > Amersfoort > Past weeks

Flag for Netherlands Weather for the Past 2 Weeks in Amersfoort, Netherlands

Now
46 °F

Overcast.


Feels Like: 41 °F
Forecast: 38 / 56 °F
Wind: 13 mph from North

Location: Deelen

Current Time: Apr 30, 2016 at 9:31:20 PM

Latest Report: Apr 30, 2016 at 8:55 PM


Visibility: N/A

Pressure: 30.18 "Hg

Humidity: 66%

Dew Point: 36 °F

Location of AmersfoortLocation

Historic Weather in Amersfoort — Graph

°F

Amersfoort Temperature Yesterday

Maximum temperature yesterday: 48 °F (at 12:55 PM)
Minimum temperature yesterday: 37 °F (at 12:25 AM)
Average temperature yesterday: 44 °F

High & Low Weather Summary for the Past Weeks

 TemperatureHumidityPressure
High63 °F (Apr 21, 3:25 PM)100% (Apr 15, 9:55 PM)30.48 "Hg (Apr 15, 9:55 PM)
Low28 °F (Apr 20, 3:55 AM)39% (Apr 20, 4:25 PM)29.39 "Hg (Apr 16, 5:25 AM)
Average44 °F76%29.94 "Hg
* Reported Apr 15 8:25 PM — Apr 30 8:25 PM, Amersfoort, Weather by CustomWeather, © 2016

Note: Actual official high and low records may vary slightly from our data, if they occured in-between our weather recording intervals... More about our weather records

Advertising

Amersfoort Weather History for the Previous 24 Hours

Scroll right to see more
 ConditionsComfort  
Time TempWeatherWind HumidityBarometerVisibility
8:25 PM
Sat, Apr 30
48 °FOvercast.13 mph62%30.18 "HgN/A
7:55 PM48 °FOvercast.15 mph62%30.15 "HgN/A
7:25 PM48 °FOvercast.15 mph58%30.15 "HgN/A
6:55 PM50 °FOvercast.14 mph54%30.15 "HgN/A
6:25 PM50 °FOvercast.13 mph58%30.15 "HgN/A
5:55 PM50 °FOvercast.13 mph58%30.12 "HgN/A
5:25 PM50 °FOvercast.15 mph58%30.12 "HgN/A
4:55 PM52 °FOvercast.15 mph58%30.12 "HgN/A
4:25 PM52 °FPartly sunny.12 mph54%30.09 "HgN/A
3:55 PM52 °FOvercast.12 mph50%30.09 "HgN/A
3:25 PM54 °FBroken clouds.10 mph44%30.09 "HgN/A
2:55 PM52 °FCloudy.9 mph50%30.09 "HgN/A
2:25 PM50 °FPartly sunny.8 mph54%30.09 "HgN/A
1:55 PM50 °FMore clouds than sun.9 mph58%30.09 "HgN/A
1:25 PM50 °FCloudy.9 mph54%30.07 "HgN/A
12:55 PM52 °FScattered clouds.7 mph50%30.07 "HgN/A
12:25 PM50 °FScattered clouds.6 mph54%30.07 "HgN/A
11:55 AM50 °FPassing clouds.7 mph54%30.07 "HgN/A
11:25 AM48 °FBroken clouds.6 mph62%30.07 "HgN/A
10:55 AM48 °FBroken clouds.6 mph62%30.07 "HgN/A
10:25 AM48 °FPassing clouds.5 mph66%30.07 "HgN/A
9:55 AM46 °FPartly sunny.6 mph76%30.04 "HgN/A
9:25 AM46 °FScattered clouds.5 mph82%30.04 "HgN/A
8:55 AM45 °FPassing clouds.5 mph87%30.04 "HgN/A
8:25 AM43 °FPassing clouds.5 mph93%30.04 "HgN/A
7:55 AM43 °FPassing clouds.5 mph93%30.01 "HgN/A
7:25 AM43 °FScattered clouds.5 mph87%30.01 "HgN/A
6:55 AM41 °FPartly cloudy.3 mph93%30.01 "HgN/A
6:25 AM41 °FPartly cloudy.5 mph93%29.98 "HgN/A
5:55 AM43 °FFog.6 mph93%29.98 "Hg6 mi
5:25 AM43 °FFog.6 mph93%29.98 "Hg4 mi
4:55 AM43 °FFog.6 mph93%29.98 "Hg4 mi
3:55 AM43 °FFog.7 mph93%29.98 "Hg6 mi
3:25 AM43 °FMostly cloudy.6 mph93%29.98 "HgN/A
2:55 AM43 °FPartly cloudy.6 mph93%29.95 "HgN/A
1:55 AM43 °FPassing clouds.5 mph93%29.95 "HgN/A
1:25 AM45 °FPartly cloudy.7 mph87%29.95 "HgN/A
12:55 AM45 °FPartly cloudy.7 mph87%29.95 "HgN/A
12:25 AM45 °FPartly cloudy.9 mph87%29.95 "HgN/A
11:55 PM
Fri, Apr 29
45 °FPartly cloudy.9 mph93%29.95 "HgN/A
11:25 PM45 °FPartly cloudy.10 mph93%29.95 "HgN/A
10:55 PM45 °FMostly cloudy.10 mph87%29.95 "HgN/A
10:25 PM45 °FPassing clouds.10 mph87%29.95 "HgN/A
9:55 PM46 °FPartly sunny.12 mph82%29.92 "HgN/A
9:25 PM46 °FMore clouds than sun.12 mph82%29.92 "HgN/A
Weather by CustomWeather, © 2016

See weather overviewHow to use our weather pages